Temperature
15 15 15 15 15 15 15 15 15 15 15 15 15 15 15 15 15 15 15 15 16 15 15 15 15 15 15 15 15 15 15 15 15 15 15 15 14 14
14 14 14 14 14 14 14 14 14 14 14 15 14 14 15 15 15 15 15 15 15 15 15 15 15 15 15 15 15 15 15 14 14 14 14 14 14 14
14 14 14 14 14 14 14 14 14 14 14 14 14 14 14 14 14 14 14 15 15 15 15 15 15 15 14 14 14 14 14 14 14 14 14 14 14 14
14 14 14 14 14 14 14 14 14 14 14 14 14 14 14 14 14 14 14 14 14 14 14 14 14 14 14 14 14 14 14 14 14 14 13 13 13 13
14 14 13 14 14 14 14 14 14 14 14 14 14 14 14 14 14 14 14 14 14 14 14 14 14 14 14 14 14 14 13 14 13 13 13 13 13 13
13 13 13 13 13 13 13 13 14 14 13 13 13 13 13 13 13 13 13 13 13 13 13 13 14 13 13 13 13 13 13 13 13 13 13 13 13 13
13 13 13 13 13 13 13 13 13 13 13 13 13 13 13 13 13 13 13 13 13 13 13 13 13 13 13 13 13 13 13 13 13 13 12 12 12 12
13 13 13 13 13 13 13 13 13 13 13 13 13 13 13 13 13 13 13 13 12 12 12 12 12 12 12 12 12 12 12 12 12 12 12 12 12 12
12 12 13 13 13 13 13 13 13 13 13 13 13 13 13 13 13 13 12 12 12 12 12 12 11 11 11 11 11 12 12 12 12 12 12 11 11 11
12 12 12 12 13 13 13 13 13 13 13 13 13 13 13 12 12 12 12 12 12 12 12 11 11 11 11 11 11 11 11 11 11 11 11 11 11 11
12 12 12 12 13 13 13 13 13 13 13 13 13 13 13 13 12 12 12 12 11 11 11 11 11 11 10 10 10 10 10 10 11 11 10 10 10 10
12 12 12 12 12 12 12 12 12 12 12 12 12 12 12 12 12 12 12 12 11 11 11 11 11 10 10 10 10 10 10 10 10 10 10 10 10 9
11 12 12 12 12 12 12 12 12 12 12 12 12 12 12 12 11 11 11 11 11 11 11 11 11 11 10 10 9 9 9 9 9 9 9 9 9 9
11 11 11 12 12 12 12 12 12 12 12 11 11 11 11 11 11 11 11 11 11 11 11 10 10 10 10 10 9 8 8 8 8 8 8 8 8 8
11 11 11 11 11 11 12 12 11 11 11 11 11 11 11 10 10 10 10 10 10 10 10 10 10 10 10 9 9 8 8 8 8 8 8 7 7 7
10 10 10 11 11 11 11 11 11 11 10 10 10 10 10 10 10 10 10 10 10 9 9 10 10 9 9 9 8 8 8 7 7 7 7 7 7 7
10 10 10 10 10 10 10 10 10 10 10 10 10 10 10 9 9 9 9 9 9 9 9 9 9 9 9 8 8 8 7 7 7 7 6 6 6 6
10 9 9 9 9 9 9 9 9 9 9 9 9 9 9 9 9 9 9 9 9 8 8 8 8 8 8 8 8 7 7 6 6 6 6 6 5 5
9 9 9 9 9 9 9 9 9 9 9 9 9 9 9 9 9 9 8 8 8 8 8 8 8 8 8 8 7 7 6 6 6 6 5 5 5 5
9 9 9 9 8 8 8 8 8 8 8 8 8 8 8 8 8 8 8 8 8 8 8 7 7 8 8 7 7 6 7 6 6 6 5 5 5 5
9 9 9 8 8 8 8 8 8 8 8 8 8 8 8 8 8 8 8 8 7 7 7 7 7 7 7 6 6 6 6 6 6 6 5 5 5 5
9 9 9 9 8 8 8 8 8 8 8 8 7 7 7 7 7 7 7 7 7 7 7 7 7 6 6 6 6 6 5 5 6 6 6 6 5 5
9 9 9 9 9 9 8 8 8 7 7 7 7 7 7 7 7 7 7 7 7 6 6 6 6 6 6 6 6 5 5 5 5 5 5 6 6 6
Wind_Speed
7 8 7 6 6 6 6 5 5 5 5 4 3 2 2 3 3 6 8 9 11 12 12 12 12 11 10 9 8 7 6 6 5 5 4 4 4 4
5 7 6 5 5 5 6 5 5 5 4 2 2 2 2 2 2 5 4 7 8 9 10 10 10 10 10 10 9 8 8 7 7 6 6 5 5 5
4 5 5 5 4 4 5 5 5 4 4 2 2 2 3 3 3 3 4 5 6 7 6 7 8 8 8 8 8 8 8 8 8 8 7 7 7 7
4 4 4 3 4 4 4 4 4 4 4 3 3 2 2 2 2 3 2 3 4 6 5 4 4 5 6 6 5 6 7 8 8 9 8 8 8 8
2 3 3 3 3 3 4 4 4 3 3 3 3 2 2 2 3 3 3 3 3 5 5 4 4 3 3 3 3 4 5 7 8 8 8 8 8 8
3 3 3 3 2 2 2 3 3 4 3 3 4 3 3 2 2 3 3 3 3 4 4 4 5 5 3 2 1 1 2 4 5 6 7 7 7 7
3 4 4 4 4 2 2 2 4 4 4 4 4 3 3 3 2 2 3 4 4 3 3 3 4 3 4 4 4 4 3 3 3 3 4 4 5 5
5 5 4 5 5 6 5 4 3 3 4 4 3 4 4 3 3 3 3 3 3 2 2 4 4 5 6 8 9 9 7 6 5 3 2 2 2 2
5 5 4 4 3 5 7 7 6 6 3 3 4 4 4 3 4 4 3 3 3 2 2 3 4 5 7 10 12 11 11 9 8 7 6 5 4 4
6 6 5 5 5 3 6 7 7 7 5 4 5 5 4 3 3 4 5 5 5 3 1 2 3 4 6 9 12 13 13 13 12 11 9 7 6 7
8 8 6 6 6 3 5 8 9 8 11 13 12 10 10 8 3 3 4 4 4 3 1 2 3 3 4 5 9 13 15 15 16 15 13 10 7 5
7 8 10 7 5 4 5 7 8 7 7 8 8 8 8 8 4 3 2 2 3 3 2 1 3 3 3 4 5 6 9 13 16 17 17 16 12 6
6 6 7 9 8 8 6 6 7 6 7 7 7 7 6 6 6 6 5 3 2 3 2 0 1 1 3 3 4 5 7 6 8 10 15 17 17 12
6 6 7 9 10 10 8 8 6 4 6 6 6 6 6 5 6 7 8 9 8 6 3 1 1 1 3 4 3 3 6 7 7 7 8 10 12 14
7 9 9 7 7 9 10 6 4 4 5 5 6 5 5 5 5 5 7 9 10 10 8 6 4 3 3 4 4 3 3 5 6 6 6 7 8 8
7 7 8 8 7 7 6 5 5 5 4 5 5 5 4 4 4 4 4 5 6 7 10 11 9 7 7 7 5 4 4 3 4 4 5 6 8 9
3 4 5 5 6 6 6 6 5 5 5 5 4 4 4 4 4 3 3 4 5 5 6 7 11 13 11 7 5 5 4 4 3 3 3 4 5 7
2 5 5 5 5 5 5 5 5 5 4 4 4 4 4 4 4 4 4 5 5 5 5 4 4 4 5 7 9 4 3 3 3 2 2 2 4 4
4 5 5 4 4 4 4 4 4 4 3 3 4 3 3 4 4 4 4 4 4 4 3 2 0 1 1 3 4 8 4 2 2 2 2 2 2 3
4 4 4 4 3 3 3 3 3 3 3 3 3 3 3 3 3 3 3 4 4 4 3 3 2 2 2 2 3 3 6 3 2 2 1 1 0 2
3 3 3 3 3 3 3 2 2 3 3 3 3 3 3 3 3 3 4 3 2 3 3 3 3 1 2 3 3 3 4 5 4 3 3 2 2 1
2 2 2 2 2 2 2 2 2 2 2 2 3 2 2 2 3 3 3 3 3 3 3 4 3 1 1 1 2 3 3 3 4 4 4 3 4 3
1 1 1 1 1 1 1 1 1 2 2 2 2 2 2 2 2 2 3 3 3 3 3 3 2 1 1 2 2 2 1 1 1 1 1 3 1 4
Wind_Direction
217 218 218 218 216 220 221 220 221 225 223 204 184 166 197 215 211 229 231 195 206 213 215 216 215 217 218 225 228 230 240 250 254 255 257 271 281 291
209 213 210 212 211 212 216 219 222 227 228 196 181 165 182 199 207 235 226 168 194 204 210 214 217 218 220 225 225 228 236 242 247 247 253 261 268 276
197 202 204 200 195 198 203 208 212 213 219 199 173 177 188 185 175 201 199 187 174 178 194 207 215 216 219 222 226 232 240 244 245 247 254 259 263 269
182 189 192 184 186 190 195 200 199 203 203 193 164 164 167 158 161 162 164 158 151 139 160 181 198 206 211 218 226 236 242 246 249 252 256 261 266 271
163 164 164 159 170 184 195 192 188 188 188 173 149 134 140 140 151 139 135 128 127 136 145 154 158 165 184 203 229 248 255 256 258 259 261 264 269 273
112 127 138 140 144 158 171 171 166 162 158 156 149 145 135 133 156 148 139 123 113 114 108 111 123 125 118 111 72 316 298 284 273 267 266 268 272 277
94 103 97 92 76 95 127 146 159 158 154 148 144 142 137 142 137 139 131 126 100 84 101 98 105 93 93 88 67 46 32 6 330 299 284 280 280 282
76 80 96 104 105 103 89 80 70 132 141 143 141 136 127 121 120 134 142 154 122 77 94 83 75 70 57 52 53 55 48 40 32 22 0 338 329 325
73 75 78 82 92 109 117 126 94 66 51 113 120 112 116 125 140 135 124 106 94 90 106 91 80 76 70 59 58 56 52 48 44 42 40 42 46 46
71 71 76 80 71 92 117 109 96 81 71 86 93 87 88 105 120 122 121 116 110 92 101 108 97 88 83 70 62 60 57 53 50 46 44 48 59 68
70 64 66 78 58 36 115 113 106 92 72 72 73 80 70 55 49 133 146 150 132 110 59 105 120 110 91 84 78 72 66 60 56 52 49 47 51 72
75 69 59 64 60 6 116 114 112 111 114 111 104 108 97 84 43 75 92 130 135 123 94 134 153 153 122 83 70 69 72 70 66 59 53 45 31 43
73 66 60 61 58 37 47 90 97 111 113 108 101 94 87 80 70 62 53 43 75 95 92 225 174 165 128 121 77 53 50 52 59 65 61 55 47 43
67 65 70 70 66 56 65 81 90 106 113 112 104 95 87 80 76 74 71 65 62 70 62 10 68 97 130 126 110 82 58 48 49 51 54 63 64 61
70 69 73 75 86 80 74 79 107 109 110 108 101 91 85 86 90 90 88 83 74 62 53 55 66 70 80 99 102 96 85 58 48 50 51 48 44 40
88 96 95 78 83 89 97 86 80 79 95 102 104 105 104 100 98 101 105 107 90 72 57 58 62 71 78 79 86 78 67 64 46 48 54 55 50 47
72 89 84 83 80 80 81 78 83 92 92 99 109 111 109 105 96 89 88 95 101 100 89 76 76 76 67 58 84 74 72 68 57 40 49 60 54 47
57 84 78 74 72 73 80 84 81 81 86 95 102 107 109 108 104 99 99 104 107 106 106 111 117 123 114 73 35 53 64 59 51 42 31 43 60 54
78 81 78 75 74 75 77 82 82 79 81 95 102 105 109 109 107 106 110 114 111 108 100 89 62 247 173 123 73 28 26 51 44 40 34 29 34 45
73 78 79 77 75 76 79 84 89 91 92 97 101 105 111 116 114 112 109 114 121 122 113 85 49 24 32 89 107 72 31 22 17 24 19 352 72 181
81 81 78 78 79 80 79 81 92 100 102 105 104 108 117 125 127 125 118 110 118 125 112 89 76 8 85 121 122 114 82 57 33 7 347 314 297 290
98 102 98 85 88 91 94 102 114 118 118 113 109 114 121 131 135 140 142 146 137 120 110 108 129 162 144 127 124 123 121 126 120 102 59 18 341 333
157 159 157 166 158 156 159 155 155 140 137 132 130 131 131 135 142 147 146 144 138 139 141 137 136 123 110 127 136 131 134 174 276 243 146 151 237 276
Height
1516 1518 1520 1522 1523 1525 1528 1530 1532 1532 1534 1535 1536 1537 1538 1540 1540 1543 1545 1546 1548 1549 1551 1552 1553 1553 1554 1554 1554 1555 1555 1555 1554 1554 1554 1553 1552 1552
1512 1515 1516 1518 1520 1521 1523 1525 1527 1529 1531 1532 1532 1533 1535 1536 1537 1539 1541 1542 1544 1546 1547 1548 1549 1550 1551 1551 1552 1552 1552 1552 1552 1552 1551 1551 1550 1549
1510 1512 1514 1515 1517 1519 1521 1522 1524 1526 1527 1529 1530 1531 1532 1533 1534 1536 1537 1539 1540 1542 1544 1545 1546 1547 1548 1548 1549 1549 1549 1549 1549 1549 1548 1548 1547 1547
1508 1510 1511 1513 1515 1517 1518 1520 1521 1523 1525 1526 1527 1529 1530 1531 1533 1534 1535 1536 1538 1539 1540 1542 1543 1544 1544 1545 1545 1545 1546 1546 1546 1546 1545 1545 1544 1544
1508 1509 1510 1512 1514 1515 1517 1518 1520 1521 1523 1525 1526 1527 1528 1529 1531 1532 1533 1534 1535 1536 1537 1539 1540 1541 1541 1542 1542 1542 1542 1542 1542 1542 1541 1541 1541 1540
1508 1509 1510 1512 1513 1515 1516 1517 1519 1520 1521 1523 1524 1526 1527 1528 1529 1531 1532 1533 1534 1535 1535 1536 1537 1538 1538 1539 1539 1539 1539 1539 1538 1538 1538 1537 1537 1536
1508 1509 1510 1512 1513 1515 1516 1517 1518 1520 1521 1522 1524 1525 1526 1527 1528 1529 1531 1532 1533 1533 1534 1535 1536 1536 1536 1536 1536 1536 1536 1536 1535 1535 1534 1534 1533 1533
1509 1510 1511 1512 1513 1515 1516 1517 1519 1520 1521 1522 1524 1525 1526 1527 1528 1529 1530 1532 1532 1533 1534 1534 1534 1535 1535 1534 1534 1534 1534 1533 1533 1532 1531 1530 1530 1530
1510 1511 1512 1513 1514 1515 1516 1517 1519 1520 1521 1523 1524 1525 1526 1527 1528 1529 1530 1531 1531 1532 1533 1533 1534 1534 1534 1533 1533 1533 1532 1531 1530 1530 1529 1528 1528 1527
1512 1512 1513 1514 1515 1516 1517 1518 1519 1520 1522 1523 1524 1525 1526 1527 1528 1529 1529 1530 1531 1532 1533 1534 1534 1534 1533 1533 1533 1532 1531 1530 1529 1528 1528 1527 1526 1525
1513 1514 1515 1516 1516 1517 1519 1519 1520 1521 1523 1524 1525 1525 1526 1527 1528 1529 1530 1531 1532 1532 1533 1533 1533 1534 1534 1533 1533 1532 1531 1530 1528 1527 1526 1526 1525 1524
1516 1516 1517 1517 1518 1519 1520 1521 1522 1523 1524 1525 1526 1527 1527 1528 1529 1530 1530 1532 1532 1532 1532 1533 1533 1534 1534 1534 1533 1532 1531 1530 1529 1527 1526 1525 1524 1524
1518 1518 1518 1519 1520 1520 1521 1522 1523 1524 1525 1526 1527 1528 1528 1529 1529 1530 1530 1531 1532 1531 1532 1532 1533 1533 1534 1533 1533 1532 1531 1530 1529 1528 1526 1525 1524 1523
1520 1520 1520 1520 1521 1522 1522 1523 1524 1525 1526 1527 1528 1529 1529 1529 1530 1530 1530 1530 1531 1531 1531 1532 1532 1532 1533 1533 1533 1532 1532 1531 1530 1528 1527 1525 1524 1523
1521 1521 1522 1522 1523 1523 1524 1525 1525 1527 1528 1528 1529 1529 1530 1530 1530 1530 1531 1531 1531 1531 1531 1532 1532 1532 1533 1533 1533 1533 1532 1531 1530 1529 1528 1526 1525 1524
1523 1523 1524 1524 1524 1525 1525 1526 1527 1527 1528 1529 1529 1530 1530 1531 1531 1531 1532 1532 1532 1532 1532 1532 1532 1532 1533 1533 1533 1533 1533 1532 1531 1530 1529 1527 1526 1524
1526 1526 1526 1526 1526 1526 1527 1527 1528 1528 1529 1529 1530 1531 1531 1531 1532 1532 1532 1533 1533 1533 1533 1533 1533 1533 1533 1534 1534 1533 1533 1532 1531 1530 1530 1529 1527 1525
1528 1527 1527 1527 1527 1527 1528 1528 1528 1529 1529 1530 1531 1531 1532 1532 1532 1532 1533 1533 1534 1534 1534 1534 1534 1534 1535 1534 1534 1534 1534 1533 1532 1531 1530 1530 1529 1527
1529 1529 1528 1528 1528 1528 1528 1529 1529 1529 1530 1530 1531 1531 1532 1532 1533 1533 1533 1534 1534 1534 1534 1535 1535 1536 1536 1536 1535 1534 1534 1533 1532 1531 1530 1530 1529 1527
1530 1529 1529 1529 1529 1529 1529 1529 1529 1530 1530 1531 1531 1531 1532 1533 1533 1534 1534 1534 1535 1535 1535 1535 1535 1535 1536 1536 1535 1534 1533 1533 1532 1532 1531 1529 1528 1527
1530 1530 1529 1529 1529 1529 1529 1529 1530 1530 1530 1531 1531 1532 1532 1533 1533 1534 1534 1534 1535 1536 1536 1535 1534 1534 1534 1535 1535 1535 1533 1532 1531 1531 1530 1529 1529 1528
1530 1530 1530 1529 1529 1529 1529 1529 1530 1530 1530 1531 1531 1532 1532 1533 1533 1534 1534 1535 1535 1535 1535 1535 1534 1534 1535 1536 1536 1535 1534 1532 1531 1530 1529 1528 1528 1527
1530 1530 1529 1529 1529 1529 1529 1529 1529 1530 1530 1530 1531 1531 1532 1532 1533 1534 1534 1534 1535 1535 1535 1535 1535 1535 1535 1535 1535 1535 1534 1533 1532 1531 1530 1527 1526 1525